Temp
31 29 27 27 28 30 31 32 31 30 29 28 27 25 24 23 23 24 24 23 24 24 25 26 25 26 27 27 29 31 31 31 31 31 31 30 30 31 30 30 30 30 31 31 31 31 30 30 29 28 28 27 27 26 27 27 26 26 26 25 25 24 24 24 24 24 25 25 25 25 25 25 26 26 25 25 25 25 24 24 24 24 24 24 24 24
30 27 27 29 30 31 32 33 33 30 29 29 27 25 24 23 23 24 24 23 24 24 24 25 25 25 26 27 28 30 31 31 31 31 31 30 31 31 30 30 30 31 31 31 31 31 30 30 29 29 28 27 27 26 27 26 26 26 25 25 25 24 24 24 24 24 25 25 25 25 25 25 26 26 25 25 25 25 24 24 24 24 24 24 24 24
28 27 29 32 32 32 32 33 33 31 29 29 27 25 23 23 23 23 24 23 23 24 24 25 25 25 25 26 26 28 29 30 30 30 31 31 31 30 30 30 30 30 31 31 30 30 30 30 29 28 27 27 27 26 26 26 26 26 25 25 25 24 24 24 24 25 25 25 25 25 25 25 25 25 25 25 25 25 24 24 24 24 24 24 24 24
25 27 31 32 32 33 33 33 33 31 30 29 26 24 22 23 23 22 22 23 23 24 24 24 24 24 25 26 26 26 26 28 28 29 30 31 31 31 30 31 30 30 30 30 30 30 30 30 29 28 27 27 27 26 26 26 26 26 25 25 25 24 24 25 25 25 25 25 25 26 25 25 25 25 25 25 25 25 24 24 24 24 24 24 24 24
28 30 33 32 33 33 32 33 33 29 28 28 28 25 23 24 25 23 22 23 23 24 24 23 22 23 25 25 26 26 26 27 28 29 30 31 31 31 31 31 31 30 30 30 30 30 30 30 28 27 27 27 27 26 26 26 26 25 25 25 25 25 25 25 25 25 25 25 26 26 26 26 25 25 25 25 25 24 24 24 24 24 24 24 24 24
30 33 34 32 33 33 32 33 33 29 26 27 29 28 26 26 25 24 23 23 22 22 23 24 21 21 24 25 25 25 26 27 27 28 29 30 31 31 31 31 31 31 30 31 31 30 30 30 28 27 27 27 27 26 26 26 26 25 25 25 25 25 25 25 25 25 25 25 26 26 25 25 25 25 25 25 25 24 24 24 24 24 24 24 24 24
32 34 34 33 33 33 33 32 33 32 26 25 29 30 28 27 25 23 23 23 21 21 23 24 22 21 22 24 25 25 26 26 26 27 28 29 30 30 30 30 31 30 30 31 31 30 30 29 28 27 27 27 27 26 26 26 25 25 25 25 25 25 25 25 25 25 25 25 26 26 26 25 25 25 25 25 25 25 25 24 24 24 24 24 25 25
33 33 33 34 33 33 32 31 33 34 27 25 29 30 28 27 25 24 24 23 22 22 23 23 23 21 21 23 25 25 25 25 26 27 27 27 28 30 31 31 30 30 30 31 31 30 30 29 29 28 28 28 27 26 26 26 25 25 25 25 25 25 25 25 25 25 25 25 26 25 26 25 25 25 25 25 25 25 25 25 25 24 24 25 25 25
34 33 33 34 33 32 32 32 34 33 28 27 30 29 28 27 25 25 24 22 22 22 21 22 23 21 21 23 25 25 24 25 26 26 27 27 28 29 30 31 31 31 31 31 31 30 30 29 29 29 29 28 27 27 27 26 25 25 25 25 25 25 25 25 24 25 25 25 25 25 25 25 25 25 25 25 25 25 25 25 25 25 25 25 25 25
34 33 34 34 33 32 33 35 35 31 28 29 29 28 27 26 25 24 24 22 22 22 21 21 22 21 21 22 23 23 23 24 25 26 27 28 28 29 30 31 30 30 31 31 30 30 30 30 30 29 29 29 28 27 27 26 25 25 25 25 25 25 25 25 24 25 25 25 25 25 26 26 26 26 26 26 26 26 26 25 25 25 25 25 25 25
34 34 35 35 34 34 35 35 34 31 29 29 28 27 26 25 24 23 23 22 21 21 21 21 22 22 21 21 22 23 24 25 26 26 26 27 28 29 30 30 30 30 30 31 30 30 30 30 30 30 30 29 28 27 27 26 25 25 25 25 24 24 25 25 24 25 25 25 25 25 26 26 26 26 26 26 26 26 25 25 25 25 25 25 25 25
33 34 34 35 35 35 35 35 33 32 31 30 28 26 24 23 23 22 21 22 21 21 22 22 23 22 21 22 23 24 25 26 26 26 26 27 28 29 30 31 31 30 30 30 30 30 29 29 30 30 30 29 28 27 27 26 25 25 25 25 24 24 25 24 25 25 25 25 25 25 26 26 26 26 26 26 25 25 25 25 25 25 25 25 25 25
32 33 34 35 35 35 33 32 31 31 30 30 28 25 22 21 21 21 20 21 21 21 22 22 23 22 21 23 25 25 25 25 26 26 27 27 28 29 30 31 31 30 31 31 30 30 29 29 29 30 30 29 28 27 27 26 25 25 25 24 24 24 24 24 25 25 25 25 25 25 26 26 26 26 26 26 25 25 25 25 25 25 25 25 25 25
27 32 34 33 33 35 33 30 28 27 28 28 27 24 22 21 21 21 21 21 21 21 21 23 22 21 21 24 25 26 25 25 26 26 27 28 28 29 30 31 30 30 31 31 30 30 29 29 29 29 29 29 28 27 27 26 26 25 25 25 24 24 25 25 25 25 25 25 25 25 25 26 26 26 26 25 25 25 25 25 25 25 25 25 25 25
23 25 31 32 32 33 34 32 30 30 30 30 30 28 23 22 22 21 21 21 21 21 21 22 22 21 21 23 25 26 26 25 25 26 27 26 27 28 29 30 30 30 30 31 30 30 29 29 29 29 29 29 29 27 27 26 26 25 25 25 25 24 24 24 24 25 25 25 25 25 25 25 25 25 25 25 25 25 25 25 25 25 25 25 25 25
23 24 31 34 33 33 33 33 34 32 30 31 33 29 24 25 24 22 21 21 21 21 21 21 22 23 23 25 25 25 25 25 25 26 25 23 24 25 26 29 30 30 30 30 30 30 30 29 30 30 29 29 29 28 27 27 26 26 25 25 25 25 24 24 24 25 25 25 25 25 25 25 25 25 25 25 25 25 25 25 25 25 25 25 25 25
23 24 33 35 33 34 33 34 36 32 28 30 30 26 27 30 28 22 21 22 21 21 21 21 22 23 24 24 25 25 25 25 25 25 25 24 24 24 25 28 30 30 30 30 30 30 29 29 30 30 29 29 29 29 28 27 26 26 26 25 25 25 24 24 25 25 25 25 25 25 25 25 25 25 25 25 25 25 25 25 25 25 25 25 25 25
25 24 31 34 32 33 35 34 35 35 33 30 27 28 31 31 29 25 22 21 22 21 21 21 21 22 22 23 24 24 24 25 25 25 25 24 24 24 26 27 29 30 30 30 30 30 29 29 29 30 30 30 29 29 28 27 27 26 26 25 25 25 25 25 25 25 25 25 25 25 25 25 25 25 25 25 26 25 25 25 25 25 25 25 26 25
29 23 28 35 33 33 36 34 31 34 36 33 30 33 31 25 24 25 22 21 21 21 21 21 21 21 21 22 23 24 24 25 25 25 25 24 24 24 26 27 28 30 30 30 30 30 29 29 29 29 30 30 30 29 28 27 27 26 26 26 25 25 25 25 25 25 25 25 25 25 25 25 25 25 26 26 26 25 25 26 25 25 26 26 26 26
31 25 24 33 35 33 34 31 27 29 33 34 33 34 32 27 25 24 24 23 22 21 21 21 21 21 23 25 25 25 25 25 24 25 25 25 24 25 25 26 27 29 30 30 30 30 29 29 30 30 30 30 30 29 28 28 27 27 26 26 26 25 25 25 25 25 25 25 25 25 25 25 25 26 26 26 26 26 26 26 26 26 26 26 26 26
32 27 23 30 35 31 29 30 29 29 30 31 29 28 29 29 28 26 25 25 23 21 21 21 21 21 25 28 27 26 26 25 25 25 25 25 25 25 25 26 26 27 29 30 30 30 30 30 30 30 30 30 30 29 28 28 27 27 26 26 26 26 25 25 25 25 25 25 25 26 25 25 25 26 26 26 26 26 26 26 26 26 26 26 26 26
29 28 24 25 28 27 28 32 34 33 33 31 29 28 28 28 27 25 24 24 25 23 21 22 21 22 26 29 28 28 27 25 26 25 25 25 25 25 25 26 26 27 29 30 30 30 30 30 30 30 30 30 29 29 28 28 27 27 27 26 26 26 26 26 26 26 26 26 26 26 26 26 26 26 26 26 26 26 26 26 26 26 26 26 26 26
29 29 25 23 26 28 31 34 34 34 35 34 33 32 32 30 26 23 22 23 24 23 23 23 21 23 27 29 29 29 28 26 26 26 25 25 25 25 24 26 26 27 28 30 31 31 30 30 31 30 29 29 29 29 29 29 28 27 27 27 27 27 26 26 26 26 26 26 26 26 26 26 26 26 26 26 26 26 26 26 26 26 26 26 26 26
29 28 25 23 26 30 32 34 35 35 35 33 32 34 33 32 30 27 26 26 24 23 23 22 21 23 27 29 29 29 29 27 27 26 26 24 24 24 24 25 26 27 28 29 30 31 30 30 31 30 29 29 29 29 29 29 28 28 28 27 27 27 27 27 27 27 26 26 26 27 27 26 26 26 26 26 26 26 26 26 27 27 27 27 27 26
27 27 25 22 23 24 26 29 30 32 33 32 32 34 34 34 34 32 30 28 25 23 23 23 21 23 27 28 29 29 29 28 28 27 26 25 25 24 25 25 25 26 27 27 29 30 30 30 30 29 29 29 29 29 29 29 29 28 28 28 27 27 27 27 27 27 27 27 27 27 27 27 27 26 27 26 26 27 27 27 27 27 27 27 27 27
28 27 26 22 21 21 22 23 24 26 29 31 32 34 34 35 34 31 27 24 23 23 24 23 22 23 27 29 28 29 29 28 27 27 27 26 26 26 26 25 25 26 26 26 27 29 29 29 29 28 28 29 29 29 29 29 29 29 28 28 28 28 28 28 28 27 27 27 27 27 27 27 27 27 27 27 27 27 27 27 27 27 27 27 27 27
29 28 27 25 22 23 23 24 27 28 27 27 30 32 33 34 35 32 26 23 23 23 23 23 23 23 25 27 28 28 28 27 26 26 26 25 25 25 26 26 25 26 26 26 27 28 28 28 28 27 28 29 29 29 29 29 29 29 28 28 28 28 28 28 28 28 27 27 27 27 27 27 27 27 27 27 27 28 28 27 27 27 27 27 27 27
28 26 28 28 26 27 28 28 31 31 28 28 29 31 32 34 34 31 25 25 26 23 21 24 25 23 24 27 28 27 27 26 26 25 25 24 24 25 25 25 25 25 25 25 26 27 27 27 27 27 27 28 29 29 29 29 29 29 29 29 29 28 28 28 28 28 27 27 27 27 27 27 27 28 28 28 28 28 28 28 28 28 28 27 27 27
28 25 27 28 27 29 31 31 32 32 31 31 30 29 30 31 31 28 25 27 28 24 22 25 26 25 26 28 28 27 27 26 25 25 24 24 24 24 24 24 23 24 24 25 25 27 27 26 26 26 26 27 27 28 28 28 27 27 28 28 28 28 28 28 28 28 28 27 27 27 27 28 28 28 28 28 28 28 28 28 28 28 28 28 27 27
27 26 29 29 27 28 30 31 32 32 31 30 30 30 30 29 28 27 27 29 29 26 26 27 26 26 28 29 28 28 28 26 25 24 23 23 23 23 23 23 23 23 24 24 24 25 26 26 25 25 25 25 25 26 27 27 27 26 26 26 26 26 26 27 27 27 28 28 27 27 28 27 27 28 28 28 28 28 29 28 28 28 28 28 28 28
27 26 29 29 25 25 29 31 32 32 30 28 27 29 30 28 27 27 27 28 27 26 27 26 24 25 27 28 28 28 27 26 24 23 23 23 23 23 22 22 22 22 23 23 22 22 23 24 23 23 23 23 23 24 25 25 26 26 27 27 26 26 26 26 26 26 27 27 27 27 28 27 27 27 27 27 28 28 28 28 28 28 27 27 28 28
28 27 28 28 23 23 27 29 29 30 29 26 25 27 27 27 26 26 26 27 26 25 25 24 23 24 26 27 27 26 24 23 22 22 22 22 23 22 22 22 21 21 22 22 22 21 21 21 21 21 22 22 23 24 25 24 24 25 26 27 27 27 26 26 26 25 25 27 27 27 27 27 27 27 27 27 27 27 27 27 27 27 27 27 27 27
29 27 26 25 22 22 26 28 27 26 24 22 24 26 27 27 26 26 26 27 27 26 24 23 23 25 26 26 25 23 22 22 22 21 21 22 22 22 22 21 21 21 21 21 21 21 21 20 20 21 21 22 22 23 24 24 24 25 26 26 27 27 26 25 26 25 25 26 26 26 26 26 26 26 26 26 26 26 26 25 25 25 26 27 26 26
29 27 26 26 23 21 25 27 25 23 21 22 26 28 27 27 26 25 25 26 26 26 25 25 25 25 25 24 23 21 21 21 21 21 21 21 21 21 21 21 21 21 21 21 21 21 20 20 20 21 21 21 22 22 23 23 23 24 25 25 25 25 24 24 25 25 24 25 26 26 25 25 26 26 26 26 26 26 26 25 25 25 25 25 26 26
28 27 26 26 24 22 24 25 22 20 21 25 28 29 28 27 26 25 25 25 26 26 25 25 25 24 24 23 22 21 20 21 20 21 21 21 21 21 21 20 20 20 20 20 20 20 20 19 19 20 20 21 21 21 21 22 22 23 24 24 24 23 22 23 24 23 22 23 24 25 24 24 24 25 25 25 25 25 25 25 26 26 25 25 25 25
28 27 26 25 25 23 23 22 21 21 24 26 27 27 28 28 26 24 23 24 25 25 24 24 24 24 23 22 22 21 21 21 20 20 20 20 20 20 20 20 20 19 19 19 19 19 19 19 19 19 20 20 20 20 20 20 21 22 22 22 22 21 21 21 21 21 21 21 22 23 23 23 24 24 24 24 24 24 23 24 25 25 24 24 25 25
28 27 25 24 24 24 22 21 22 22 23 24 24 26 27 27 26 24 22 22 24 25 24 24 23 23 22 22 22 22 21 21 20 19 19 19 19 19 19 19 19 19 19 19 19 19 19 18 18 19 19 19 19 19 19 20 20 20 20 20 20 20 20 20 20 20 20 20 21 21 22 22 22 23 23 23 23 22 22 23 23 23 23 24 24 24
28 28 26 24 24 24 22 21 22 21 21 22 23 25 27 27 27 26 23 22 23 24 24 23 23 22 22 22 22 23 22 21 20 19 19 19 19 19 19 19 19 19 19 19 19 19 19 18 18 18 18 18 18 18 18 18 19 19 19 19 19 19 19 19 19 20 20 20 20 20 21 20 21 21 21 21 21 21 21 21 21 21 22 23 23 23
28 28 27 24 23 23 22 21 21 20 20 22 23 25 26 26 27 27 23 21 22 24 23 23 22 22 22 22 22 22 23 21 20 19 20 20 20 20 19 19 19 19 19 19 19 19 18 18 18 18 18 17 17 17 18 18 19 19 18 18 18 18 18 18 19 19 19 19 20 20 20 19 19 19 20 20 20 20 20 20 20 21 21 22 21 21
27 27 27 24 22 22 22 21 20 21 21 22 23 24 25 26 27 26 21 20 22 24 23 22 22 22 22 22 21 21 21 21 20 19 20 20 20 20 20 20 20 20 20 19 19 19 19 19 18 18 18 17 17 17 17 18 19 18 17 17 17 17 17 17 18 18 18 19 20 20 19 19 19 19 19 19 19 19 19 19 19 21 21 21 20 20
25 25 25 23 22 22 22 20 20 21 21 22 23 23 24 25 25 22 20 21 23 23 22 22 22 21 21 21 20 20 20 20 20 19 20 20 21 21 21 20 20 20 20 19 19 19 19 19 18 18 18 18 18 18 17 18 18 17 17 17 17 17 17 17 17 18 18 18 19 19 19 19 18 18 19 18 19 19 19 19 19 20 20 20 20 19
23 23 23 22 22 22 22 20 20 20 21 23 23 23 24 23 22 20 22 23 23 23 22 22 21 21 21 20 20 19 19 19 20 20 20 20 20 20 20 20 20 20 20 20 20 20 19 19 19 19 19 19 18 18 18 18 18 17 17 17 17 17 17 18 18 18 18 18 18 18 18 18 18 19 19 19 19 19 19 19 19 19 19 19 19 19
22 22 21 21 22 22 21 20 19 20 21 23 23 22 22 21 21 22 23 23 23 23 22 21 20 21 20 20 19 19 19 20 19 19 19 19 19 19 19 19 19 19 20 20 19 19 19 19 19 19 19 19 18 18 18 18 18 18 18 17 17 17 18 18 18 18 18 18 18 18 18 18 18 19 19 19 19 19 19 19 19 19 19 19 19 19
23 22 21 21 22 21 20 19 20 21 22 23 22 21 21 22 22 23 23 22 23 23 22 20 20 21 20 20 19 19 19 19 19 19 19 19 19 19 19 20 20 20 20 20 19 19 19 19 19 19 19 19 19 18 18 18 18 18 18 18 18 18 18 18 18 18 19 19 19 19 19 18 18 19 19 19 19 19 19 19 19 19 19 19 19 19
23 23 22 21 22 22 21 21 22 22 23 23 22 22 22 23 23 23 23 22 22 22 22 21 20 20 20 20 20 19 19 19 19 19 19 19 19 19 20 20 21 20 20 20 20 20 20 19 19 19 18 18 18 18 18 19 18 18 18 18 18 19 18 18 19 19 19 19 19 19 19 19 19 19 19 20 20 20 20 20 19 19 19 19 20 20
24 24 23 22 22 22 22 22 23 23 23 23 23 23 23 23 23 23 23 23 22 22 22 21 19 19 20 20 20 20 20 20 20 19 19 19 20 19 20 20 21 21 20 20 20 20 20 19 19 18 18 18 18 18 18 19 19 18 18 18 18 18 18 19 19 19 19 19 19 19 19 19 19 20 20 20 20 20 20 20 20 20 19 19 20 20
25 24 24 23 22 22 22 22 23 23 22 22 23 22 23 23 23 23 23 23 23 23 22 21 20 19 19 20 20 20 19 20 20 19 20 20 20 20 20 21 21 21 21 21 21 21 20 20 19 19 18 18 18 18 18 18 18 18 18 18 18 18 18 19 19 19 19 19 19 19 19 19 19 20 20 20 20 20 20 20 20 20 20 20 20 20
24 25 24 23 22 22 21 22 23 23 22 22 22 22 22 22 22 22 22 23 23 23 22 21 21 20 20 20 20 20 19 19 19 19 20 20 20 20 20 21 21 22 21 21 21 21 20 20 19 19 19 19 19 19 19 18 18 18 18 18 18 18 18 19 19 19 19 19 19 20 20 19 19 19 19 19 20 19 19 19 20 20 19 19 19 19
24 24 23 22 22 22 22 22 22 22 22 22 22 22 22 22 22 22 22 22 22 22 22 21 21 20 20 20 20 20 19 19 18 18 19 19 19 19 19 20 21 21 21 21 21 21 20 20 20 19 19 19 19 19 19 19 18 18 18 18 18 18 18 18 19 19 19 19 19 20 20 19 19 19 19 19 19 19 19 19 19 19 19 19 19 19
24 23 23 22 21 21 21 22 22 21 21 21 21 22 22 22 22 22 22 22 22 22 22 22 21 21 20 20 20 19 19 18 18 18 18 18 18 19 19 20 20 20 20 20 20 20 20 20 19 19 19 19 19 19 19 19 19 18 18 18 18 18 18 18 19 19 19 19 19 19 19 19 19 19 19 19 19 18 18 18 18 19 19 19 19 19
23 23 23 23 21 21 21 21 22 21 20 21 22 22 22 22 21 21 21 21 22 21 21 21 21 21 21 21 21 20 19 18 18 18 18 18 18 19 19 19 20 20 20 20 20 20 20 19 19 19 19 18 19 19 19 19 18 18 18 18 18 18 18 18 19 19 19 19 19 19 19 19 19 18 18 18 18 18 18 18 18 18 18 18 19 19
Height
759 775 783 784 782 775 771 767 769 776 779 786 793 797 802 811 815 809 806 805 803 813 817 813 816 816 811 807 800 793 792 796 798 799 800 802 804 805 806 807 808 808 806 806 808 811 814 817 820 823 826 828 831 833 835 837 838 839 841 843 845 846 847 848 849 851 852 853 855 856 856 857 858 860 861 862 863 863 864 865 866 867 868 868 869 870
762 780 782 773 771 765 761 759 761 773 780 784 791 798 803 810 814 809 807 808 804 812 817 812 816 818 813 809 802 795 796 799 799 800 801 802 803 804 805 807 807 806 804 805 808 810 814 817 820 823 825 827 830 832 834 836 838 840 841 843 844 846 847 848 849 851 852 853 855 856 856 857 859 860 861 862 863 864 864 865 866 867 868 868 869 870
774 780 773 762 759 757 757 754 757 770 778 783 790 798 808 811 813 814 810 808 808 813 819 816 818 821 815 809 805 801 801 799 797 798 799 800 802 804 804 806 807 806 806 806 808 810 813 817 819 822 825 827 830 832 834 836 838 840 841 842 844 846 847 848 850 850 852 853 854 856 856 857 859 860 861 862 863 864 864 865 866 867 868 869 869 870
782 774 761 753 752 755 757 753 757 769 775 783 789 797 809 808 810 820 818 813 811 811 816 820 822 821 816 811 807 805 804 801 799 798 797 796 799 802 801 803 805 807 808 808 808 809 812 816 819 822 825 828 830 832 834 836 838 839 841 842 843 845 847 848 849 850 852 853 854 855 856 857 859 860 861 862 863 864 864 866 867 867 868 869 869 870
771 758 747 749 750 753 757 755 759 773 779 780 784 791 802 802 800 809 817 815 813 814 815 821 833 829 817 817 814 807 805 803 801 800 799 797 796 798 799 800 802 804 807 808 808 809 811 814 818 821 824 827 829 831 833 835 837 838 840 842 843 845 846 848 849 850 851 852 853 854 856 857 858 860 861 862 863 863 864 865 866 867 868 869 869 870
760 744 739 749 751 751 757 757 757 770 781 780 778 780 788 794 796 803 813 815 821 828 819 819 842 841 821 819 820 812 809 808 805 804 803 800 797 798 800 801 801 803 804 805 806 808 810 813 817 821 823 826 829 831 833 834 836 838 839 841 843 844 846 847 848 850 851 852 853 853 855 856 857 859 860 861 862 863 864 865 866 867 868 869 870 870
751 738 736 747 751 751 755 757 752 758 778 782 770 768 777 786 796 806 810 814 825 831 818 815 835 842 829 823 819 815 814 812 808 807 805 802 800 799 800 800 801 802 803 804 805 806 809 812 815 819 822 825 828 830 832 834 835 837 839 840 842 844 845 846 848 849 850 851 852 853 854 855 856 858 859 860 861 862 863 864 866 867 868 869 869 870
744 741 741 742 748 753 756 759 749 746 772 782 763 763 777 785 796 805 808 815 821 820 820 819 824 836 837 825 816 815 818 816 812 810 807 804 803 800 799 799 800 801 802 804 805 806 807 811 814 817 820 823 826 829 831 833 834 836 837 839 841 843 844 845 847 848 850 851 852 853 854 855 856 857 859 860 861 862 863 864 865 866 867 868 869 870
738 744 745 741 747 754 753 751 743 744 771 779 764 766 777 784 794 800 807 818 818 819 832 829 821 835 840 824 814 816 820 821 816 812 808 805 804 801 798 798 798 799 800 802 804 805 807 809 812 815 818 821 824 828 830 831 833 835 836 838 840 842 843 845 846 848 849 850 851 853 854 855 856 857 858 860 861 862 863 864 865 866 867 868 868 869
735 736 734 735 745 750 744 738 736 749 770 770 764 772 780 788 797 802 811 819 821 827 836 830 822 834 841 828 821 823 823 820 815 810 807 804 803 801 798 798 798 798 798 800 802 803 806 808 811 814 817 820 823 826 828 830 832 834 835 837 839 840 842 844 845 847 848 850 851 852 853 854 856 857 858 859 860 861 862 863 864 865 866 867 868 869
732 724 722 728 735 736 733 733 736 749 762 764 767 778 790 798 802 808 814 818 831 838 829 822 820 828 839 831 821 821 817 812 811 810 808 804 802 800 797 797 798 798 798 799 800 802 805 807 810 813 815 818 821 824 827 829 831 833 834 836 838 839 841 843 844 846 847 849 850 851 852 853 854 855 857 858 859 860 862 863 864 865 866 867 868 868
734 731 728 724 723 726 730 736 740 745 752 763 772 781 799 812 812 819 826 826 842 843 823 816 817 825 838 829 814 811 806 803 806 808 807 805 802 798 795 795 795 796 797 798 800 801 803 806 809 812 814 816 819 822 825 828 830 832 833 835 837 839 840 842 843 845 846 848 849 850 852 853 854 855 856 857 858 860 861 862 863 864 866 866 867 868
741 737 731 725 722 724 736 748 750 752 758 767 773 781 804 825 827 835 842 839 844 841 824 816 819 829 832 817 806 805 802 800 799 799 801 801 800 797 794 793 793 794 795 796 799 800 802 805 807 809 812 814 817 820 823 826 829 831 833 834 836 838 839 841 842 843 845 846 848 849 851 852 853 854 855 857 858 859 860 861 862 863 865 866 866 867
755 743 731 734 734 724 735 754 761 766 771 773 774 780 800 821 835 846 848 842 842 838 827 817 821 832 826 807 799 797 795 795 794 793 795 795 796 796 792 791 792 793 794 795 797 798 800 803 805 808 810 812 815 818 821 824 827 830 832 834 835 837 838 840 841 842 844 845 847 849 850 851 852 853 855 856 857 859 860 861 862 863 864 865 865 866
770 766 743 740 741 730 733 745 750 757 763 763 758 765 783 798 816 835 842 843 842 837 831 827 826 830 823 807 795 790 788 791 792 792 793 795 795 794 793 792 792 793 793 793 795 797 798 801 804 806 808 811 814 817 820 823 826 828 831 833 834 836 838 839 841 842 843 845 846 848 849 850 852 853 854 855 856 858 859 860 861 862 863 864 864 865
766 767 739 727 729 729 735 734 732 747 759 751 743 760 777 775 784 809 822 824 828 833 835 831 824 814 808 800 790 788 789 790 793 794 796 802 801 798 799 796 792 792 792 793 794 796 797 799 802 805 807 809 812 815 818 820 823 826 829 831 833 834 836 838 840 841 843 844 845 847 848 850 851 852 854 855 856 857 858 859 860 861 863 863 864 865
767 760 732 725 728 725 730 730 727 745 759 751 750 763 763 753 765 798 815 809 814 833 835 826 821 813 806 801 792 790 793 793 795 796 798 803 804 803 802 797 793 791 790 791 792 793 795 797 800 802 805 808 810 813 816 818 821 824 827 830 832 834 836 837 839 840 842 844 845 846 847 849 850 852 853 854 855 856 857 859 860 861 862 863 864 864
763 764 737 728 738 728 720 725 726 729 740 753 762 757 749 753 761 780 810 821 823 837 835 824 824 822 818 813 800 795 798 797 796 796 797 801 802 803 800 795 793 789 787 789 789 791 793 795 798 801 803 806 808 811 814 817 820 822 825 828 830 833 834 836 838 839 841 843 844 845 846 848 850 851 852 853 855 856 857 858 859 860 861 862 863 864
751 768 748 725 735 732 717 730 742 731 727 740 748 741 751 778 781 777 799 818 827 838 836 825 822 818 815 811 803 801 800 797 796 795 796 798 800 801 798 794 792 788 786 788 788 789 791 793 796 799 802 804 807 810 812 816 819 821 824 826 829 831 833 835 837 838 840 842 843 845 846 847 849 850 852 853 854 855 856 857 858 859 861 861 862 863
744 767 764 730 724 731 729 741 756 750 736 734 738 738 747 766 776 777 781 790 811 835 835 827 827 817 801 793 794 796 794 792 795 795 793 794 795 796 795 793 791 789 787 786 787 788 789 791 794 797 800 803 805 809 811 814 817 819 823 825 828 831 832 834 836 837 839 841 842 844 845 847 848 849 851 852 853 854 855 856 857 858 859 860 861 863
743 761 770 744 726 736 746 747 750 751 748 747 751 755 754 753 757 767 771 769 788 820 830 830 831 812 786 777 781 785 786 787 789 790 791 790 789 791 792 790 789 790 788 785 785 787 787 789 793 795 799 801 805 808 810 813 816 819 822 824 826 829 831 833 835 836 838 839 841 843 844 846 847 849 850 851 852 853 854 855 856 858 859 860 861 862
751 759 766 759 747 749 749 737 731 735 740 746 753 755 754 755 759 775 786 772 766 790 809 816 822 807 780 770 772 774 779 781 782 784 787 787 786 788 790 787 787 789 788 783 782 784 786 788 791 794 797 800 803 807 810 812 815 818 821 823 826 828 830 832 833 834 836 838 840 842 843 845 846 847 849 850 852 853 853 855 856 857 858 859 860 861
750 754 761 764 756 749 741 726 723 726 727 734 743 744 746 750 757 777 792 778 766 777 786 796 813 805 778 766 766 767 772 775 776 779 783 785 784 786 788 786 786 788 785 782 781 782 785 787 790 793 796 799 802 805 809 811 813 817 819 822 825 827 829 831 832 833 835 837 839 840 842 843 845 846 848 849 851 852 853 854 855 856 857 858 859 860
748 756 766 768 757 744 733 724 721 721 726 738 741 738 741 746 748 757 765 764 771 782 784 799 818 805 776 765 764 764 766 769 773 775 779 784 784 785 787 787 787 786 783 781 780 780 783 786 788 792 794 797 800 804 807 809 812 815 817 820 823 825 828 830 831 833 834 836 838 839 841 842 844 845 847 848 849 850 852 853 854 855 856 857 858 859
759 766 772 781 783 772 758 750 744 736 735 743 742 736 737 738 739 745 749 754 769 777 777 794 812 799 776 768 765 763 765 768 771 772 775 781 784 786 788 788 788 785 783 783 781 780 782 784 787 790 793 796 799 803 805 808 811 813 816 819 821 823 826 828 830 832 834 835 837 838 840 841 843 844 846 847 848 849 851 852 853 854 855 856 857 858
761 768 771 787 804 802 793 786 775 763 752 745 740 737 735 733 735 744 753 764 774 772 769 783 799 794 778 770 769 768 769 772 773 773 775 778 782 785 787 789 789 786 785 785 782 781 782 784 786 789 792 795 798 801 804 807 809 811 814 817 819 822 824 827 829 830 832 834 836 837 839 840 842 843 845 846 847 848 850 851 852 853 854 855 856 857
760 765 765 776 787 788 786 778 765 759 760 754 745 739 736 734 734 739 753 767 770 772 777 781 785 790 784 775 774 772 771 776 778 778 781 784 786 786 786 787 788 787 787 786 783 782 783 784 785 787 791 794 797 800 803 805 808 810 813 815 818 821 823 825 827 829 831 833 835 837 838 839 841 842 843 845 846 847 848 849 851 851 853 854 854 855
763 769 765 765 768 765 763 758 749 749 752 750 746 743 738 734 735 744 756 760 759 775 791 783 774 784 785 775 773 774 773 777 779 779 781 783 784 786 785 787 789 790 789 788 786 784 785 786 785 786 790 793 796 800 801 804 807 809 812 815 817 819 821 824 826 827 830 832 834 836 837 838 840 841 842 844 845 846 847 847 849 849 851 852 852 853
765 772 764 763 764 759 754 750 746 746 745 744 748 751 746 742 746 755 760 756 753 769 784 778 772 778 777 770 770 772 772 775 777 777 777 776 779 784 787 788 790 791 792 792 789 785 786 788 786 786 789 792 795 799 801 804 807 809 812 814 816 819 821 823 825 826 828 830 832 834 836 837 839 840 841 842 843 845 845 846 847 847 848 849 850 852
765 770 763 763 767 762 756 751 744 743 747 750 754 755 754 756 759 761 762 757 755 762 770 772 775 777 772 769 770 768 768 771 774 776 777 779 782 786 789 790 789 791 793 795 793 789 788 789 788 787 790 792 795 798 800 803 805 808 810 812 816 818 819 821 824 825 827 829 831 833 834 836 837 838 840 841 842 843 844 845 846 846 846 847 848 850
765 771 764 761 769 767 758 750 746 747 753 759 763 762 759 761 764 766 767 766 767 773 775 776 784 785 774 768 768 769 770 773 777 780 781 783 785 788 790 792 792 794 796 798 798 796 794 793 791 791 792 795 797 799 801 803 805 807 809 811 814 817 817 819 822 825 827 828 830 832 833 834 836 837 838 839 840 841 842 843 844 845 846 847 847 849
765 772 767 766 779 778 761 754 755 754 756 764 771 773 769 767 771 775 776 776 778 784 786 787 795 795 781 772 773 776 780 786 790 790 787 786 787 789 791 792 793 794 795 797 798 799 800 799 798 798 797 798 800 800 801 803 805 806 808 809 811 813 816 818 820 823 825 826 828 830 831 832 834 835 837 837 838 838 839 841 842 843 844 846 847 848
767 773 772 775 789 785 766 762 764 765 778 789 783 778 777 775 776 780 781 781 781 784 791 798 800 793 782 778 782 787 790 793 796 797 796 793 790 790 791 792 795 795 794 795 797 798 799 800 800 801 801 802 803 802 802 804 805 806 807 808 809 811 814 817 817 819 821 823 825 827 828 830 831 832 833 834 834 835 836 838 839 841 843 844 846 847
768 772 773 775 786 788 774 765 770 788 810 808 784 772 777 779 781 786 789 788 785 784 788 793 792 788 786 787 791 796 795 793 792 793 796 796 795 794 794 794 796 796 795 795 797 798 799 798 799 801 803 805 805 804 805 806 807 807 807 807 808 810 812 814 814 814 817 820 823 824 826 827 828 828 830 830 831 832 833 835 836 838 841 843 844 845
771 774 776 774 780 786 777 773 797 821 818 795 776 771 773 775 779 786 791 790 788 788 789 790 790 791 792 793 794 797 798 795 792 791 793 797 798 796 796 796 797 797 797 797 797 799 800 801 802 802 804 806 807 806 807 808 809 809 808 808 809 810 812 813 812 814 817 819 820 821 824 825 825 825 826 827 828 830 831 832 832 834 838 840 842 843
772 777 780 777 778 785 784 789 814 823 801 782 781 777 772 775 781 790 800 799 793 792 794 794 795 794 795 796 795 796 798 797 796 796 796 798 800 800 800 800 798 798 799 799 799 801 803 804 806 806 806 807 807 808 810 812 813 811 809 810 811 813 815 816 818 820 822 821 819 820 822 823 823 823 823 825 826 827 828 829 829 831 835 837 839 841
770 776 782 784 782 784 792 798 803 805 801 797 794 785 780 783 785 793 808 810 798 794 797 797 798 798 797 798 797 797 797 800 805 806 801 800 802 804 804 803 803 804 803 802 803 804 805 806 808 809 809 807 807 809 812 814 814 812 811 813 815 816 818 819 821 824 825 823 821 821 822 823 823 823 824 824 824 825 826 828 829 831 833 835 837 839
766 772 780 788 786 781 791 802 806 814 821 815 802 788 780 780 779 782 801 814 804 795 798 799 799 800 798 798 799 797 796 805 815 815 807 804 803 803 803 803 804 806 807 807 807 807 806 807 809 810 811 810 810 812 813 813 813 813 814 816 818 819 819 819 821 822 823 823 823 823 823 823 823 824 825 826 826 826 827 828 829 830 832 835 836 838
767 770 773 785 791 786 791 806 817 825 826 813 801 790 780 779 776 777 801 822 811 797 798 800 800 801 799 798 799 796 800 814 823 818 809 806 805 803 803 804 803 805 807 807 808 809 808 808 808 811 812 812 813 815 815 815 815 816 817 818 819 820 820 820 821 822 822 823 823 823 823 823 824 824 826 828 828 829 829 828 828 830 831 833 835 836
774 776 777 786 793 788 791 808 819 821 817 807 798 791 784 779 775 789 821 832 811 797 800 800 799 801 798 798 800 801 806 815 819 814 808 806 806 805 804 805 806 807 807 807 808 810 810 810 810 812 814 815 816 816 817 817 816 817 820 820 820 820 821 822 822 822 823 823 823 823 823 823 824 825 826 829 830 831 831 830 830 831 831 832 833 835
783 782 784 790 793 787 795 815 823 818 811 803 796 790 783 779 790 816 834 824 803 799 801 798 799 801 798 799 803 806 809 809 809 809 808 806 807 807 806 807 808 809 811 812 812 812 813 814 815 815 816 818 818 818 818 817 816 818 820 821 821 822 823 825 825 824 824 824 824 825 825 824 826 826 826 828 830 831 831 831 831 832 832 833 834 835
795 792 791 796 799 795 799 815 825 822 810 798 793 788 782 793 817 828 818 804 800 802 800 800 802 801 800 803 804 806 808 807 807 809 808 808 809 809 809 809 809 811 813 814 815 815 815 816 818 818 819 820 819 820 819 818 818 819 820 821 823 824 825 825 826 826 825 825 826 826 827 827 827 827 828 829 831 831 832 832 832 832 831 833 835 836
798 801 803 803 803 803 811 823 834 834 814 794 793 796 796 807 820 814 802 800 802 800 800 804 804 802 803 806 806 807 808 807 808 810 809 810 810 810 811 812 812 813 814 814 816 817 817 818 819 820 821 821 821 821 821 819 819 819 820 821 823 826 826 826 827 827 827 827 827 827 828 829 829 829 830 831 832 833 834 834 833 833 833 834 835 837
796 800 808 808 803 809 824 832 831 826 810 796 799 807 808 807 805 801 802 805 803 800 803 805 805 805 806 807 809 811 810 810 811 811 811 812 812 811 813 814 814 815 815 815 816 817 817 819 820 821 822 822 822 822 822 821 820 820 821 822 824 826 827 827 828 828 829 829 829 829 830 831 832 832 832 833 834 835 836 836 836 836 836 835 835 837
797 794 801 806 804 806 817 820 814 809 805 801 801 804 805 803 800 800 803 804 804 804 804 805 808 808 806 808 811 812 812 813 813 813 812 813 813 812 813 814 815 817 816 816 817 818 818 820 820 821 823 823 823 823 823 822 822 822 822 824 825 826 827 828 829 829 830 831 831 832 832 833 834 834 834 835 835 836 837 838 838 837 838 836 835 838
792 788 793 802 804 804 807 808 805 806 806 804 803 803 803 803 802 801 802 804 805 805 804 807 810 809 806 809 810 811 813 813 813 814 814 813 813 814 814 815 816 817 817 817 818 818 819 820 821 822 823 823 824 824 824 824 824 824 824 826 826 827 828 828 829 831 832 832 833 833 833 834 835 835 835 837 838 837 838 838 837 838 839 838 837 838
789 788 793 800 807 811 814 810 805 806 808 806 806 806 805 804 804 803 804 805 804 803 804 807 809 809 809 809 810 812 813 813 813 815 815 814 815 815 815 816 816 817 818 818 818 819 820 821 822 822 823 824 825 825 826 827 827 827 827 828 828 828 829 829 830 832 834 834 834 834 835 835 835 835 836 837 838 838 838 838 838 838 839 839 839 839
791 790 796 802 806 811 814 810 804 806 807 806 808 810 808 808 807 805 804 805 803 804 805 806 808 810 810 809 810 813 814 814 815 816 815 815 815 815 815 817 817 817 818 818 819 820 821 822 823 824 824 825 826 827 828 828 829 829 830 830 829 830 830 830 831 833 834 834 835 835 836 836 835 835 836 837 837 837 838 839 839 839 840 841 841 841
790 792 798 803 808 811 812 808 806 810 812 809 810 810 809 809 809 808 807 807 806 806 807 807 809 811 811 812 813 813 815 816 816 816 816 817 816 815 816 817 817 818 819 819 820 821 822 824 825 825 826 827 828 829 830 830 831 831 831 831 831 831 831 831 832 833 834 834 835 836 836 836 836 836 837 837 837 838 839 840 841 842 842 843 843 843
792 798 799 803 813 818 814 808 808 814 817 815 812 811 811 810 811 811 811 810 810 810 810 810 811 811 812 814 814 814 817 817 816 817 818 818 817 818 818 818 819 820 820 820 821 822 824 826 827 827 828 829 830 831 832 832 832 833 832 833 833 832 832 833 833 833 834 834 835 836 836 836 837 837 838 839 839 840 841 842 843 844 844 844 844 844
794 797 797 802 812 815 810 805 805 810 815 814 810 810 811 811 812 814 814 813 813 812 811 811 813 813 814 814 815 816 817 817 818 818 818 818 820 820 819 820 821 821 822 822 823 823 825 827 828 828 830 831 832 833 834 834 834 834 834 834 834 833 833 833 833 834 835 835 835 836 837 838 838 838 839 840 840 841 842 843 844 845 845 845 845 846
Wind_Speed
4 3 4 5 6 8 10 10 6 6 7 5 4 4 6 5 2 3 3 4 4 3 3 4 3 4 7 5 5 8 9 7 9 8 9 11 10 8 9 11 9 7 10 15 20 22 24 26 25 26 26 26 26 25 25 24 23 25 27 26 24 22 22 21 21 20 18 18 18 16 13 13 15 17 17 16 16 14 11 12 14 13 13 12 12 10
5 4 5 8 10 12 12 10 9 9 10 7 4 5 5 4 3 2 4 8 4 1 3 3 4 5 5 2 4 3 9 9 9 9 9 12 11 8 10 12 9 6 11 13 17 21 23 24 25 25 25 27 27 26 27 25 23 25 26 25 24 23 22 21 21 20 19 18 17 16 14 15 16 16 17 17 15 14 12 11 13 13 12 11 10 11
5 5 7 10 11 13 13 10 10 11 10 7 4 5 4 4 4 2 3 9 4 1 4 2 4 5 3 2 5 3 3 4 5 5 7 12 11 8 11 12 9 8 11 10 13 19 22 24 25 25 25 27 26 26 28 26 23 24 24 24 24 22 21 21 20 19 18 17 16 15 14 16 16 15 16 17 15 14 13 12 12 12 12 12 11 11
5 6 10 11 10 12 13 10 7 10 8 6 5 4 5 6 5 1 2 7 3 1 4 3 1 1 2 2 2 3 2 1 1 2 2 10 10 8 12 11 8 10 11 10 12 16 20 23 24 25 25 25 25 25 27 26 24 24 23 23 23 22 20 19 19 18 18 16 15 15 15 15 16 16 15 16 15 14 14 13 12 11 12 13 11 11
6 9 12 12 11 11 12 10 8 7 5 7 8 5 7 9 6 5 6 6 3 2 4 5 2 1 2 0 1 2 3 2 2 4 2 7 9 8 11 11 9 11 10 10 12 13 17 20 22 25 25 24 23 24 26 26 24 24 25 24 23 21 20 19 18 18 18 16 16 17 16 15 16 17 16 17 15 14 14 14 13 12 12 12 11 11
8 9 12 13 11 11 10 8 8 8 5 6 9 9 12 12 8 12 12 7 4 1 4 6 3 3 2 1 3 2 3 2 2 3 2 4 7 8 10 10 10 11 10 9 11 13 16 19 23 26 25 23 22 23 25 25 23 25 26 24 23 21 20 19 18 18 18 16 17 19 18 18 20 18 19 19 18 17 16 15 14 13 14 13 11 11
7 8 8 12 11 11 10 6 7 10 6 4 10 15 14 13 12 15 13 6 3 3 4 4 3 2 1 2 4 1 2 2 2 1 2 3 4 7 8 9 10 11 10 9 10 13 16 19 22 25 26 24 23 24 24 23 23 26 27 25 24 22 20 20 17 17 18 17 18 19 19 21 22 20 20 21 19 19 16 14 14 14 15 13 12 11
6 10 7 10 11 9 6 4 7 7 5 2 10 18 16 13 14 13 10 3 2 4 4 2 1 2 2 4 4 3 2 2 4 4 3 3 4 5 8 9 10 11 10 9 9 11 15 19 22 25 26 25 25 25 24 23 24 26 27 26 25 23 21 20 18 17 18 18 19 19 18 19 19 19 19 19 19 18 16 16 15 14 14 14 13 12
8 9 9 9 9 6 5 7 7 4 6 4 11 16 13 13 12 10 6 2 2 4 4 4 2 2 2 2 3 4 3 5 6 6 6 4 5 6 9 9 10 12 11 10 10 10 15 20 22 24 25 26 28 27 25 25 26 27 27 26 25 24 23 22 19 19 19 18 18 17 17 17 16 16 16 17 19 16 16 18 16 15 15 14 13 13
5 8 10 8 5 5 6 7 5 12 10 9 15 15 12 12 10 8 5 3 2 1 3 8 7 2 2 3 3 4 5 8 7 6 6 6 6 7 8 8 9 10 10 10 11 12 16 21 23 23 24 26 29 28 26 26 27 27 27 26 25 23 24 23 21 21 20 19 19 16 16 17 16 17 16 16 18 15 15 18 17 15 16 13 12 13
5 6 8 5 2 4 6 4 9 17 14 13 16 14 11 9 6 5 3 3 3 2 3 9 10 4 1 4 6 4 4 7 7 6 6 6 8 9 9 9 9 10 9 10 11 13 18 23 24 24 24 25 29 30 28 27 27 28 27 26 25 23 25 25 22 22 21 21 20 16 15 17 17 18 18 17 17 15 16 19 17 16 16 14 13 12
8 5 4 4 1 2 3 3 11 20 18 11 11 10 9 5 2 4 3 3 1 3 1 6 10 5 2 3 5 5 6 8 9 8 10 9 9 9 9 10 10 11 10 9 10 12 16 19 21 24 23 23 29 31 28 28 27 27 27 27 25 24 24 25 23 22 21 21 20 17 15 17 17 19 20 18 18 17 17 19 17 16 15 14 13 12
5 4 5 6 3 2 1 1 8 14 9 5 8 8 7 3 1 3 2 1 1 2 3 2 7 4 3 2 4 7 9 10 10 9 10 11 10 10 10 10 9 10 10 9 10 11 12 13 16 21 21 22 29 31 28 28 27 27 27 27 26 24 24 25 23 21 21 21 20 18 17 17 17 18 19 19 19 19 18 18 18 17 16 15 14 14
2 5 3 6 3 3 2 0 4 7 5 6 7 6 4 4 2 2 2 1 1 0 3 2 6 3 3 2 5 10 11 10 10 9 9 10 11 10 10 10 9 9 10 8 9 11 11 14 17 19 20 23 28 30 30 28 27 27 26 27 27 25 25 25 23 22 21 20 19 19 17 17 18 17 17 19 19 19 19 17 17 17 17 16 14 14
4 4 2 5 3 4 5 4 4 3 5 9 8 6 5 5 4 3 3 2 2 1 2 2 4 2 1 1 3 8 10 8 8 6 3 2 3 3 5 7 10 11 9 7 8 11 12 17 22 20 19 24 27 29 30 29 28 27 26 27 27 26 26 25 23 23 22 20 20 20 19 18 17 16 16 18 17 17 19 17 15 16 17 16 14 14
5 5 7 9 6 8 8 6 5 5 5 5 5 6 5 4 5 4 3 4 3 2 2 1 2 2 1 1 3 2 6 9 7 3 5 5 2 4 7 6 8 11 11 8 9 10 12 19 23 21 21 24 26 28 30 30 29 29 27 28 27 27 27 25 24 24 22 21 20 20 21 19 18 16 15 17 16 15 17 17 15 15 15 15 14 13
2 3 6 10 8 9 9 6 6 5 3 1 1 2 5 7 8 5 2 4 4 2 1 1 2 1 0 2 2 1 6 9 8 5 6 5 5 7 9 7 7 11 11 9 10 10 12 17 21 21 22 24 25 25 28 31 31 30 29 28 27 27 27 26 24 24 23 22 20 20 21 20 19 17 16 16 16 14 15 15 14 14 13 13 13 13
3 4 5 9 11 9 7 5 5 6 4 1 0 1 4 7 6 4 3 3 2 1 1 2 3 2 2 1 2 4 7 9 10 9 8 9 9 9 9 6 5 10 11 9 10 11 13 17 19 21 24 25 26 25 28 31 31 31 31 29 27 27 27 26 25 25 23 22 21 20 21 20 20 19 17 16 16 16 16 14 14 14 13 14 14 14
3 2 6 8 12 9 7 4 4 5 5 2 2 2 3 4 2 2 3 3 3 0 1 2 2 3 4 3 5 9 10 10 11 10 10 11 12 11 10 5 4 8 11 9 10 10 11 16 20 22 24 26 26 26 30 32 30 31 31 29 28 27 27 27 25 25 24 22 21 21 21 20 19 19 17 16 16 16 16 15 15 15 14 14 14 13
0 1 2 4 7 9 7 3 3 4 4 3 3 2 3 4 4 3 2 3 4 2 1 0 1 3 4 4 8 11 12 12 11 11 11 13 14 12 9 4 3 4 8 9 9 9 10 16 20 23 26 27 26 27 31 32 28 30 30 28 28 26 25 26 25 25 25 22 21 21 21 20 19 18 17 16 17 16 16 15 14 15 14 14 14 14
1 1 2 1 2 4 5 4 5 5 3 2 2 2 1 2 4 4 2 2 4 4 3 2 0 3 3 4 7 10 11 12 12 11 10 10 13 11 8 5 3 5 7 9 10 8 11 16 20 23 26 28 27 27 31 30 28 29 29 28 28 26 25 26 25 25 26 24 21 20 21 20 19 18 16 16 17 16 16 15 14 14 13 13 14 15
1 1 3 2 2 2 3 8 8 5 6 6 3 3 4 2 4 3 0 2 3 3 4 4 2 2 1 2 5 6 9 11 11 11 10 9 12 11 7 7 5 5 7 8 11 10 10 16 19 21 25 28 28 27 29 29 29 29 28 27 28 27 26 27 26 26 26 24 22 21 21 20 20 19 17 16 16 15 16 16 14 14 14 13 14 14
1 1 3 3 3 6 4 9 9 6 6 7 6 5 4 3 4 4 1 3 1 1 2 3 1 1 1 1 2 5 8 10 11 10 10 9 10 11 9 6 5 6 5 4 10 11 11 17 21 20 23 26 27 28 27 27 29 30 29 29 28 27 27 27 26 26 26 25 23 22 22 21 19 19 18 17 16 15 16 16 15 15 15 15 14 14
5 2 4 5 4 7 8 6 10 6 6 4 6 8 6 5 4 5 4 4 2 1 2 3 1 2 1 3 1 4 7 9 10 9 10 9 7 9 11 7 4 5 2 1 6 11 12 18 20 18 21 24 25 26 26 27 30 30 30 31 29 29 28 26 26 26 26 24 22 21 21 21 20 19 18 17 16 16 16 16 15 15 15 15 15 15
4 2 4 4 4 6 7 1 3 2 3 2 3 5 6 8 7 6 4 3 3 5 6 5 1 3 2 1 1 3 5 7 9 10 10 10 8 8 9 7 2 1 2 2 1 6 10 14 16 16 19 22 24 24 23 26 29 30 31 31 30 30 30 27 26 27 26 25 23 22 20 21 21 19 19 18 17 16 15 14 15 15 14 14 15 15
1 2 3 3 2 3 2 2 1 2 4 4 5 5 6 9 7 5 4 3 2 4 7 6 3 2 2 3 4 3 5 5 5 6 6 6 8 8 8 7 2 1 1 1 1 4 4 8 12 15 19 21 23 22 22 24 26 28 31 31 30 31 31 28 26 26 27 25 24 24 22 21 21 20 19 19 18 17 16 15 15 15 14 14 15 14
1 2 1 2 3 4 5 6 7 6 4 5 6 5 4 4 2 1 2 4 5 3 4 3 7 6 4 5 6 5 5 5 4 5 5 6 4 2 5 7 5 2 2 3 2 5 2 4 10 15 18 20 21 21 22 22 22 26 29 28 29 31 30 29 26 26 29 27 24 24 23 22 21 20 20 19 17 17 17 17 17 16 16 16 14 13
2 2 4 3 4 5 6 8 9 8 4 2 3 6 6 5 4 3 1 2 7 7 3 3 10 10 7 7 7 6 6 6 4 5 6 6 5 3 2 5 5 2 1 3 2 4 3 3 8 14 18 19 19 20 22 22 21 24 26 25 27 29 29 29 26 25 28 28 25 24 23 22 21 19 19 18 17 17 17 18 19 18 18 18 16 15
2 1 4 6 7 8 10 10 9 8 5 4 8 9 7 6 7 7 11 10 5 6 6 9 11 10 8 7 6 6 6 5 6 6 6 8 9 6 5 8 6 3 1 3 2 4 4 4 6 13 19 19 18 18 19 19 17 18 19 18 20 22 24 25 25 26 28 27 26 25 23 22 21 18 17 16 16 18 16 15 17 18 19 20 19 17
2 2 4 6 7 9 12 12 7 6 5 8 13 13 14 17 16 16 17 16 11 8 9 9 7 5 2 3 5 6 6 6 6 7 6 6 7 7 7 7 7 6 2 2 3 3 4 5 6 11 15 16 17 17 18 19 17 16 15 15 13 10 11 14 14 18 27 28 25 25 25 23 21 18 16 13 12 17 17 13 11 13 18 23 21 17
2 3 6 5 4 7 10 10 7 7 4 13 16 13 13 19 20 19 17 14 13 12 10 9 10 8 6 5 6 6 7 7 5 6 6 5 6 7 7 6 5 6 3 3 5 6 5 3 6 9 12 15 15 14 15 17 18 19 18 18 15 10 10 13 9 9 20 26 22 21 24 24 22 20 17 12 8 12 14 12 9 7 9 15 18 17
3 4 6 4 3 5 9 8 11 9 6 16 19 15 14 17 16 16 14 12 11 10 11 11 9 5 6 7 7 9 11 9 6 4 5 5 6 7 6 5 5 6 4 1 2 3 7 7 9 12 14 14 12 11 12 12 14 18 21 22 22 19 16 19 17 10 14 21 20 19 21 22 22 20 16 10 8 8 7 6 5 5 5 6 8 11
3 2 3 3 3 5 9 10 13 11 9 11 13 13 13 15 15 15 14 14 12 9 8 7 4 3 5 6 9 11 12 9 5 3 3 3 4 5 4 4 4 4 3 2 3 2 3 6 6 7 10 9 8 9 9 9 10 15 20 21 24 24 18 18 23 19 16 20 22 19 19 20 20 19 16 13 12 11 8 5 3 3 5 5 5 6
4 3 1 1 1 3 9 8 9 11 9 6 8 11 13 16 18 17 14 14 13 9 7 6 4 6 8 9 11 12 12 9 4 3 4 4 3 3 3 4 5 4 3 5 5 2 5 9 8 6 8 7 6 7 5 5 8 13 17 17 21 22 18 19 25 24 19 20 22 21 18 18 19 20 19 18 17 16 14 11 8 5 6 7 7 6
3 5 3 2 1 1 5 6 6 6 5 5 8 10 11 15 19 18 15 15 14 12 10 9 7 8 9 10 12 12 12 11 9 8 9 8 5 4 5 6 6 6 6 7 7 7 9 11 9 7 8 8 8 8 5 4 7 10 14 17 19 19 18 22 25 24 21 20 21 19 17 15 17 19 20 18 18 17 16 16 18 16 11 9 10 10
2 4 3 2 2 0 2 3 4 3 1 8 11 10 8 9 12 14 14 14 13 12 10 9 9 9 9 9 9 10 12 12 11 11 11 11 10 9 7 7 7 7 8 8 10 11 13 15 15 11 7 6 8 9 7 3 5 8 10 12 11 10 11 12 13 14 16 15 13 14 13 13 15 17 18 18 16 15 14 15 18 17 13 12 13 13
2 2 2 2 2 1 1 2 4 5 1 8 8 7 8 7 7 10 9 8 10 11 9 8 8 8 7 7 7 8 11 11 9 9 10 11 12 10 9 9 9 9 9 10 12 14 16 18 19 15 11 9 9 10 8 5 4 6 8 9 9 11 11 10 9 5 3 4 5 7 8 9 11 12 13 15 15 14 13 13 12 11 11 13 14 14
3 2 0 1 1 1 3 3 3 2 1 4 7 8 9 8 4 8 8 5 7 9 9 7 6 6 5 5 4 3 5 8 7 4 4 6 8 8 8 10 10 9 9 10 12 15 17 18 18 16 15 16 15 13 12 12 13 15 17 17 14 10 8 9 8 7 6 6 7 7 5 5 7 9 9 10 12 13 13 12 10 8 8 11 13 13
1 5 2 0 1 2 2 4 2 2 1 3 8 10 9 9 7 3 6 4 6 7 9 7 5 5 4 5 4 2 4 6 3 1 1 3 6 7 8 9 11 12 12 12 14 16 16 17 18 17 18 20 19 17 15 16 19 21 21 20 18 16 15 13 12 10 9 7 6 7 6 4 4 6 7 6 7 9 11 11 11 10 11 12 13 11
2 3 2 2 3 3 1 3 2 2 1 5 9 8 8 7 6 5 4 2 6 5 7 6 5 5 4 5 6 5 5 4 3 2 1 3 7 10 11 11 13 15 16 15 16 16 15 15 16 17 18 18 18 18 19 20 22 23 22 22 23 22 19 16 15 15 14 11 7 6 6 6 5 5 5 4 5 6 7 7 8 11 12 11 12 11
2 1 1 0 2 3 1 3 2 2 2 7 8 8 9 6 2 5 2 4 5 5 6 7 6 6 6 5 5 4 4 4 5 4 3 5 7 9 12 15 16 17 18 18 17 17 16 15 15 16 17 17 17 18 20 22 24 24 23 24 25 22 19 18 19 20 20 18 14 12 12 11 10 10 10 10 11 10 9 8 9 11 10 9 10 11
2 2 3 3 3 3 2 4 2 2 4 8 7 8 10 3 3 3 1 2 3 5 6 7 6 6 7 6 6 6 5 5 6 5 4 6 6 7 12 16 18 18 19 19 19 18 17 16 16 17 17 16 16 17 19 22 24 23 24 24 22 20 19 20 21 21 22 23 21 21 20 17 15 17 17 15 14 13 12 11 11 11 11 11 12 11
2 2 3 3 3 3 4 4 3 1 5 9 6 5 9 4 3 1 1 2 5 5 5 6 5 5 6 6 6 7 7 6 6 6 5 6 7 8 10 13 15 15 16 18 18 17 18 18 17 16 16 15 16 16 17 20 21 21 22 21 18 17 19 20 21 21 20 20 21 22 22 20 18 18 20 19 17 15 14 13 12 12 13 13 12 11
3 2 2 2 2 2 3 3 2 2 3 8 6 5 4 3 3 2 4 4 4 5 5 4 4 5 5 6 6 5 5 6 6 5 6 6 6 7 9 11 12 13 14 16 16 17 18 19 18 17 17 16 16 17 17 19 19 19 19 17 14 13 15 16 18 19 17 16 17 18 17 18 17 16 17 18 17 16 14 14 13 12 10 11 12 11
2 3 4 4 3 3 4 4 3 4 4 7 7 6 5 5 4 4 5 5 4 5 4 4 5 5 5 5 5 4 4 5 5 5 5 5 4 5 6 9 11 12 13 14 14 14 15 17 17 16 16 15 15 15 15 16 17 17 16 14 12 12 12 12 13 14 14 13 13 13 11 12 13 14 13 13 13 13 12 11 12 11 9 11 13 12
3 6 6 5 5 6 7 6 5 6 7 7 8 7 6 6 5 5 5 5 4 4 5 5 5 2 3 2 3 5 4 4 5 5 4 4 4 3 3 6 10 12 12 12 13 14 14 14 14 14 14 13 12 11 11 11 12 14 14 12 11 11 11 10 11 12 10 10 10 9 7 6 7 9 10 9 7 8 8 8 10 10 10 11 12 11
3 4 4 4 5 4 4 5 6 6 8 8 8 7 7 7 6 5 5 4 4 5 5 6 7 4 2 0 2 5 5 3 5 5 3 4 5 5 4 7 10 10 10 10 12 14 14 13 13 13 13 11 10 9 8 9 10 12 11 10 10 11 10 10 11 10 8 8 8 8 8 7 5 7 8 8 8 9 9 9 8 9 11 12 11 9
2 4 4 4 4 4 5 6 7 8 8 8 7 5 6 6 7 7 7 6 6 6 6 7 7 6 4 3 5 6 5 4 5 4 2 1 2 3 5 9 9 8 10 13 14 14 14 13 13 13 13 12 9 8 7 8 10 11 10 8 9 11 11 10 10 10 8 6 6 6 8 12 12 13 14 14 14 15 15 12 10 10 12 13 12 11
1 3 3 4 5 5 5 6 8 8 8 7 7 6 5 5 6 7 7 8 8 7 6 7 8 8 7 6 5 5 5 4 4 4 3 4 3 6 10 11 9 9 13 16 15 14 14 14 13 13 13 11 9 8 8 9 10 10 9 9 8 9 11 10 8 9 9 8 6 5 7 10 13 16 18 19 18 18 17 15 12 12 12 12 12 11
1 3 3 5 5 2 2 5 7 6 5 5 6 7 6 6 6 6 6 7 8 8 6 5 7 8 9 9 7 6 5 4 3 4 4 4 4 8 11 12 13 14 13 15 15 15 13 11 10 11 11 9 9 8 8 8 9 9 8 7 7 8 9 9 8 8 10 9 8 8 9 11 12 12 15 19 19 18 17 15 13 11 10 10 9 9
2 2 2 5 5 3 3 5 6 6 5 4 5 7 6 6 6 6 6 6 6 6 7 7 6 6 7 8 9 8 6 5 5 6 3 2 3 7 8 8 9 11 11 13 14 14 12 10 9 9 8 7 6 6 6 6 7 8 7 6 7 8 9 9 8 8 8 8 9 10 10 12 13 13 14 15 15 15 15 13 10 8 8 7 7 6
Wind_Direction
187 172 179 202 223 225 222 218 195 136 120 118 116 126 133 120 128 149 125 148 171 147 148 167 175 202 201 234 253 180 162 165 173 164 151 148 156 170 150 150 174 167 148 151 149 140 136 140 139 140 142 144 148 152 153 152 151 150 149 152 155 159 159 156 156 156 156 161 161 165 170 161 153 154 157 156 158 165 173 172 164 161 163 164 162 156
191 198 205 208 214 231 234 212 182 143 128 134 138 127 114 108 131 143 144 163 193 139 147 167 160 198 215 266 326 167 170 180 174 170 160 149 161 171 145 154 178 160 145 149 145 141 139 140 141 141 143 142 143 151 155 152 148 147 149 153 156 160 161 160 158 157 158 164 165 167 168 164 160 159 158 154 157 166 172 172 166 163 164 163 162 162
192 219 218 215 214 227 242 229 182 146 136 140 138 129 121 122 109 53 146 157 182 206 156 192 169 183 236 334 357 21 166 192 167 173 171 153 161 168 148 159 175 149 149 156 144 143 144 143 142 140 142 145 145 149 155 154 151 151 152 155 159 161 163 163 162 161 162 166 169 168 166 167 168 167 166 160 158 165 170 169 165 166 167 164 164 163
184 215 217 224 222 220 235 234 171 135 143 150 147 143 138 153 144 98 181 158 175 254 143 165 166 185 302 354 359 14 43 346 11 349 197 162 164 166 154 159 164 151 158 162 147 146 148 145 142 141 144 149 150 149 153 156 156 158 159 158 161 163 164 168 169 167 166 167 171 172 169 167 165 165 164 162 160 168 173 167 166 173 171 168 168 162
217 207 201 216 228 225 231 221 164 135 160 166 164 160 145 163 160 121 142 152 133 44 117 127 95 266 263 309 297 341 32 24 30 14 325 181 172 161 155 159 158 156 163 162 152 150 150 146 142 146 149 150 151 151 155 159 160 162 163 163 165 166 168 172 172 171 171 168 164 165 168 164 160 160 162 164 162 169 172 167 173 179 167 163 163 159
241 219 187 197 221 230 235 220 172 154 162 182 176 162 154 158 128 114 133 143 126 140 166 146 148 217 226 228 254 309 31 16 27 35 315 216 180 160 156 160 156 156 163 163 156 151 150 147 142 147 152 153 154 155 158 162 163 164 164 166 168 169 172 174 174 177 178 173 161 159 159 156 155 159 165 169 165 169 174 173 179 176 159 160 164 163
245 247 198 184 204 224 230 228 197 172 162 198 170 150 147 141 124 130 145 150 136 162 175 158 162 192 230 234 230 242 54 317 301 210 278 285 207 169 160 162 159 159 163 162 159 152 150 148 144 148 156 159 159 161 162 162 165 167 166 167 170 170 172 172 174 178 178 175 167 164 161 157 157 161 168 172 169 173 179 176 176 170 160 165 171 172
225 253 243 189 193 212 208 213 235 201 163 181 138 135 136 132 133 139 140 132 104 121 134 163 139 123 216 224 201 148 118 268 257 224 240 281 258 197 170 168 164 163 163 163 162 155 151 150 149 154 160 162 161 162 164 164 168 170 168 170 170 169 171 174 173 174 175 171 164 163 165 163 163 165 171 174 171 177 183 176 172 170 166 169 175 179
200 233 252 216 193 187 187 210 222 126 99 109 112 118 123 121 122 119 105 58 69 113 149 197 171 113 216 210 144 145 184 231 231 222 220 228 249 216 179 176 169 162 164 166 165 158 153 153 155 159 162 162 162 165 166 166 169 173 172 171 170 170 174 175 172 170 172 169 162 162 165 168 170 171 174 174 174 181 182 173 170 172 173 173 178 182
192 219 238 230 184 165 202 215 157 97 99 124 112 102 96 93 89 88 88 70 85 119 195 194 186 157 203 182 157 172 202 217 213 216 217 210 233 220 183 182 176 163 165 166 165 161 155 157 160 164 165 163 163 166 166 166 169 172 173 172 170 173 175 174 174 174 174 172 172 175 174 176 175 172 172 171 175 182 174 166 167 175 178 176 179 181
248 229 227 224 165 179 205 184 112 114 127 126 109 100 90 84 74 74 67 64 91 261 215 184 189 190 205 189 187 187 192 205 196 199 216 211 224 216 186 183 179 168 169 165 163 162 157 159 163 169 172 165 161 163 163 165 169 171 173 173 173 175 175 173 176 178 177 175 178 182 179 177 174 171 172 169 171 174 168 167 170 176 180 177 178 182
257 237 192 178 169 256 217 145 120 129 139 130 119 118 101 92 70 65 37 30 114 264 279 174 187 202 238 201 197 197 185 190 188 194 206 204 214 213 190 186 179 170 173 167 163 160 156 161 165 172 178 165 156 160 162 163 168 171 173 175 175 176 177 175 176 179 179 177 179 183 182 178 173 174 178 174 173 172 168 170 173 176 179 181 183 185
256 249 177 148 150 271 310 117 131 132 137 134 132 126 103 111 157 84 80 335 194 271 333 162 170 197 265 218 199 209 198 190 188 197 202 196 204 210 196 188 176 171 174 168 163 158 156 164 169 174 177 161 152 158 162 162 168 171 174 176 176 178 180 178 177 178 177 177 178 182 182 177 172 175 180 180 178 176 173 175 179 180 180 186 189 189
264 272 194 126 127 197 210 201 148 139 154 173 156 136 114 131 147 114 130 195 225 156 13 110 154 179 279 237 204 212 208 194 186 196 202 197 201 208 204 188 169 169 175 169 161 159 160 166 173 178 174 159 154 159 162 163 167 171 174 177 177 178 181 180 181 178 176 178 180 180 178 173 173 176 179 181 181 180 179 180 186 188 183 186 192 191
198 265 179 139 140 174 199 221 217 222 197 185 170 140 128 136 142 141 145 177 226 163 72 105 166 190 244 255 247 224 206 186 186 200 188 177 210 237 243 198 167 168 176 174 164 163 164 165 173 181 174 163 160 160 161 164 167 170 174 178 178 180 180 181 185 183 179 181 183 181 176 172 175 179 180 182 185 186 185 186 191 193 189 190 195 193
206 222 175 174 167 164 199 217 207 260 265 203 153 122 139 160 137 126 155 168 173 149 112 186 220 222 195 247 305 269 180 168 185 191 81 55 345 288 270 231 179 171 175 176 168 165 166 164 170 178 170 166 166 161 160 164 167 170 175 178 180 182 181 181 187 188 185 183 183 182 179 176 177 179 183 184 187 191 189 190 193 190 192 196 195 191
213 236 191 178 171 172 201 216 180 201 256 287 60 127 162 154 129 112 136 146 139 136 110 272 267 324 298 269 305 155 161 164 184 186 127 138 212 243 250 238 194 177 173 173 169 165 165 165 169 171 164 164 166 161 161 165 168 172 175 178 181 184 183 182 186 190 189 184 182 183 182 181 179 178 182 185 186 188 186 190 192 188 193 200 197 194
177 285 275 184 172 175 194 224 210 200 204 163 342 253 137 131 128 121 122 130 132 121 155 217 240 232 220 246 163 171 182 179 187 192 172 171 195 225 239 245 215 183 171 167 167 163 165 166 167 167 163 164 167 164 163 166 170 174 176 179 181 183 184 184 186 188 188 185 185 185 182 182 183 181 185 188 186 187 187 188 190 191 196 199 201 199
174 300 293 188 169 164 167 210 250 245 239 214 244 246 128 133 161 135 131 149 147 105 213 213 252 228 212 201 169 180 194 191 185 189 184 178 190 214 225 245 261 196 173 163 165 163 164 167 166 166 165 166 169 170 168 168 171 174 176 179 181 184 185 185 187 187 186 186 188 188 182 182 185 184 187 191 187 188 191 189 190 195 197 199 201 199
347 59 271 199 158 150 151 171 223 237 256 273 293 278 143 151 166 157 163 153 136 148 202 145 350 246 224 195 178 182 192 191 183 186 191 186 190 204 210 218 275 226 182 166 165 165 163 166 166 166 168 169 171 172 171 171 171 172 175 178 181 184 185 186 187 188 188 187 188 188 185 184 186 187 191 192 188 190 192 189 192 195 196 199 202 198
329 33 275 259 115 146 163 180 191 192 193 209 287 288 201 160 151 151 172 168 146 149 166 145 208 258 241 178 176 181 185 189 187 186 191 190 189 193 196 193 234 261 211 174 164 165 165 167 168 168 169 171 172 169 168 171 172 172 175 178 181 183 185 186 187 188 190 189 188 189 189 188 189 190 193 191 191 196 194 189 192 196 196 200 201 199
16 331 298 312 351 307 198 178 184 194 179 164 177 240 250 203 139 111 67 224 182 149 159 161 165 294 300 184 186 175 172 183 189 186 185 190 187 182 187 188 189 240 233 183 166 165 166 170 171 170 168 169 170 167 167 170 171 173 176 178 182 184 186 188 188 188 189 189 191 192 191 192 192 192 194 193 194 199 198 194 194 198 200 199 199 202
325 241 321 321 311 310 271 186 181 217 210 171 171 207 232 220 148 117 176 227 239 70 133 120 86 315 307 260 192 150 155 172 182 184 180 186 185 176 183 196 188 206 232 198 173 168 166 174 176 172 167 167 170 169 169 170 170 174 177 179 183 185 187 190 190 188 186 188 194 194 189 191 194 195 198 198 198 201 200 201 203 204 203 200 199 202
330 350 355 329 307 311 298 202 170 207 234 191 189 196 203 223 194 156 176 176 141 198 129 80 18 242 252 324 1 134 154 165 172 178 173 174 181 177 183 198 207 190 186 312 191 175 167 174 177 173 167 167 171 172 173 173 171 174 178 180 184 186 188 192 191 188 186 189 195 192 187 191 194 196 199 198 200 203 203 205 206 205 204 203 203 204
339 358 15 360 340 335 327 333 138 211 278 280 230 203 200 218 206 180 177 149 155 175 144 121 217 238 231 318 34 112 135 148 160 167 166 168 174 181 188 195 215 153 97 23 217 169 168 176 176 171 166 167 172 176 177 175 173 175 178 180 184 186 189 193 191 187 187 191 195 191 189 192 193 194 197 198 201 203 202 204 203 201 203 206 205 206
355 324 28 57 19 339 322 308 305 287 309 304 269 244 231 226 212 178 142 120 189 178 128 130 173 222 225 169 148 124 106 108 124 138 144 159 167 180 189 183 179 48 108 190 107 112 155 182 171 164 163 165 172 178 177 173 172 174 177 180 184 185 187 191 191 188 187 191 194 193 193 195 195 195 197 201 204 200 197 201 202 201 205 208 205 207
58 313 319 143 181 226 226 233 245 245 259 267 265 284 281 259 269 259 159 157 172 128 81 138 149 150 202 178 156 158 138 118 91 93 77 59 73 185 194 168 166 163 181 231 145 92 92 181 162 161 164 163 169 174 171 169 170 170 172 177 181 184 186 188 189 188 187 189 192 195 197 195 196 201 200 201 205 202 199 202 204 203 204 207 208 209
67 346 305 286 246 244 249 259 269 274 271 252 301 323 309 290 296 306 359 142 148 115 76 175 148 147 185 184 163 162 145 130 124 118 107 104 126 202 179 115 115 112 311 265 207 106 114 178 153 155 160 156 157 163 164 165 167 168 170 173 178 182 184 187 189 188 188 189 192 198 202 196 196 203 202 199 203 208 209 203 201 206 207 206 208 208
44 323 312 321 312 309 305 291 278 285 303 24 25 8 6 357 355 27 39 38 78 122 157 177 157 151 176 177 154 140 124 130 143 138 146 160 163 162 118 103 113 144 238 261 218 130 147 190 155 150 152 141 135 144 152 153 153 160 165 165 169 177 181 185 190 189 188 190 193 199 203 200 200 202 204 205 203 208 219 214 203 206 209 207 205 206
34 320 325 325 308 312 311 296 278 284 317 40 37 23 44 50 40 40 42 35 42 83 134 147 121 100 116 122 114 111 113 123 130 127 138 154 141 126 124 125 140 164 177 332 346 55 128 166 155 144 137 119 115 129 144 150 152 157 158 153 153 159 168 176 185 190 190 190 194 200 202 204 204 201 206 218 208 204 218 228 217 206 206 207 205 201
45 321 320 317 301 304 298 295 309 309 351 56 40 18 48 61 50 43 39 33 42 64 81 77 67 47 13 37 82 92 92 95 104 115 118 117 110 113 120 114 117 139 142 356 357 4 13 79 99 90 86 85 95 119 141 151 156 162 169 172 173 173 174 179 186 203 197 191 193 200 201 204 206 204 210 222 208 198 209 219 217 194 185 199 202 198
354 332 326 335 340 309 301 336 7 357 38 57 38 22 44 60 59 54 44 35 38 52 57 54 55 34 353 14 52 61 61 53 39 53 64 71 89 99 116 121 108 119 129 88 71 24 9 29 45 46 60 82 106 130 147 153 155 164 174 180 186 191 191 188 189 199 198 189 188 193 196 197 199 201 206 205 183 179 189 197 206 197 173 172 183 187
322 316 333 356 6 312 316 2 36 40 48 45 28 30 49 59 67 68 56 46 39 37 53 57 44 11 5 24 43 54 63 61 40 27 26 45 81 87 118 137 103 102 115 89 110 141 95 85 75 53 63 89 117 127 141 155 166 182 185 184 190 195 191 186 188 192 194 189 186 183 183 185 188 191 195 194 187 182 172 148 121 161 200 201 179 172
322 319 317 327 323 311 322 351 55 62 56 39 20 40 65 70 68 66 58 52 44 38 49 54 47 42 38 47 58 60 64 63 55 53 46 45 57 56 68 89 80 77 79 69 66 68 94 109 123 108 90 92 92 85 98 137 166 195 200 193 191 190 184 186 191 193 196 195 190 185 181 180 182 186 193 199 201 197 191 188 189 191 206 212 206 195
356 344 345 312 256 324 333 353 58 66 64 60 31 32 65 80 75 67 58 50 44 41 41 35 40 55 56 65 78 80 71 58 41 33 38 41 48 59 67 74 74 73 69 66 61 58 75 95 105 95 79 79 88 91 95 129 162 189 200 198 192 186 187 194 197 199 203 201 193 190 190 188 185 186 192 197 197 195 194 200 208 212 213 217 220 217
22 339 342 304 283 103 339 3 90 132 32 39 33 15 26 64 75 68 51 39 35 36 35 30 35 53 61 65 79 95 92 73 46 29 31 38 39 38 49 61 63 68 73 68 65 66 73 85 93 93 76 61 76 91 98 124 167 170 177 186 176 150 150 169 181 196 205 199 186 185 191 193 192 190 189 188 184 184 190 199 207 210 210 217 225 224
57 347 355 322 298 87 71 47 110 147 8 20 20 355 356 24 79 93 71 31 24 33 33 31 37 44 53 58 72 106 107 86 59 33 31 49 57 49 52 62 56 53 65 70 74 78 78 81 90 101 105 96 83 83 97 118 130 113 98 93 94 90 90 96 95 100 144 148 145 166 185 197 197 190 183 177 170 170 182 194 199 200 201 209 216 219
150 176 275 7 328 21 84 77 77 105 31 356 340 333 344 1 50 108 102 38 12 30 34 32 41 42 51 62 66 126 108 80 68 50 37 73 93 93 88 88 83 74 73 73 72 76 79 81 84 90 92 88 80 75 83 91 89 84 79 79 91 103 100 99 99 93 95 99 103 120 150 186 196 186 177 168 161 161 168 172 172 174 188 202 208 211
195 172 185 165 308 323 82 103 76 79 120 320 325 329 339 348 353 67 92 31 351 22 35 32 44 42 32 41 37 44 85 79 80 113 164 140 122 115 112 110 107 99 89 82 77 77 83 88 88 88 85 81 79 80 85 91 92 89 85 85 91 92 85 89 100 104 105 107 100 106 121 132 151 165 170 164 153 156 160 157 157 171 191 200 198 191
294 160 177 220 254 274 102 96 77 101 73 325 325 331 331 331 346 30 72 341 325 11 35 28 39 43 23 32 44 45 66 105 148 174 166 135 124 120 118 113 114 116 111 104 99 95 92 90 89 90 90 87 89 93 98 102 100 92 87 85 83 77 71 76 91 98 104 113 118 111 107 100 99 119 144 151 136 135 144 154 174 191 195 191 183 175
350 33 3 288 276 283 97 89 87 119 27 330 326 344 334 310 12 59 108 254 315 19 42 31 34 43 36 45 68 71 66 99 132 140 113 104 107 105 100 95 99 110 115 114 113 111 105 101 98 96 93 92 93 95 98 100 97 91 89 86 81 74 70 73 82 89 94 100 103 100 98 101 104 101 105 116 118 116 123 142 168 181 178 167 164 166
343 350 359 5 351 347 59 82 99 110 3 329 321 357 358 347 120 87 216 235 12 36 50 42 38 50 58 64 79 92 92 89 101 109 90 77 76 74 84 89 92 100 106 104 102 105 107 106 105 102 97 92 92 94 96 96 93 90 89 86 81 81 83 81 79 80 85 89 91 88 86 88 95 97 95 96 103 110 121 133 143 146 144 141 140 138
323 14 23 9 8 34 58 54 68 88 341 333 334 10 11 30 130 106 17 59 45 43 58 54 41 47 70 82 79 83 96 93 88 90 76 66 70 71 79 89 93 97 101 98 93 95 98 97 95 97 97 97 98 98 97 95 94 91 90 89 85 85 86 85 80 76 76 80 83 83 82 79 82 92 95 92 92 99 106 114 122 126 129 131 129 129
332 1 49 11 347 41 78 64 77 112 352 358 37 78 51 58 104 77 64 64 36 34 57 65 52 41 58 84 87 84 92 90 81 79 75 71 77 80 84 92 98 100 102 101 100 98 97 95 95 96 100 104 106 102 98 97 97 95 94 95 95 90 86 85 84 79 74 73 74 75 79 78 75 82 91 92 92 94 96 101 103 104 114 123 126 131
19 87 95 65 31 59 95 110 111 101 61 36 55 84 90 74 61 60 81 87 56 42 52 66 63 40 35 74 103 103 92 90 87 87 87 83 85 100 107 107 110 115 118 119 117 111 105 104 105 105 107 110 111 108 105 104 101 99 99 102 102 97 92 92 94 87 79 76 74 70 75 81 80 82 87 92 95 97 99 98 90 81 84 100 108 108
99 109 102 85 84 84 88 107 118 104 90 74 63 62 67 65 52 49 69 90 93 82 82 90 90 53 349 13 120 121 115 119 117 112 119 116 115 146 149 118 120 133 145 149 140 127 122 121 118 114 113 113 114 113 111 110 108 107 110 113 110 104 99 101 105 98 82 72 77 87 97 105 108 110 109 110 113 108 106 102 92 85 81 82 88 88
65 81 93 112 126 115 98 110 111 96 91 87 75 64 59 52 42 38 44 63 91 93 92 100 115 140 189 266 117 120 120 117 107 105 122 137 153 200 199 148 149 161 162 152 139 128 127 129 128 127 125 119 113 109 109 113 114 114 118 121 118 116 113 110 112 112 92 64 72 93 92 78 102 139 140 134 130 123 120 121 112 100 92 88 92 92
55 70 82 100 112 109 111 112 97 83 80 80 75 71 65 53 43 38 32 32 54 76 86 90 97 113 119 88 93 111 112 89 82 76 26 45 151 169 143 137 152 158 132 120 118 115 112 108 109 114 118 119 119 116 113 117 122 124 127 128 127 128 125 119 117 118 105 82 88 97 73 66 89 117 125 127 128 123 121 124 122 110 98 93 96 98
178 106 101 104 101 103 120 121 107 95 87 85 85 82 75 67 60 52 41 31 33 46 73 89 93 99 103 95 92 96 95 91 93 76 27 10 42 75 85 88 88 99 114 118 116 110 105 102 102 106 110 116 126 129 124 124 132 137 135 128 130 135 130 124 122 119 111 106 110 101 72 75 94 104 107 113 118 114 108 105 104 105 100 88 81 81
97 110 127 126 120 132 152 126 119 116 108 103 103 98 89 81 73 62 54 46 36 31 41 73 99 108 112 114 117 112 99 95 107 96 56 21 43 67 74 75 74 81 100 114 117 118 118 119 120 118 116 119 126 126 124 126 134 141 141 135 138 138 132 127 121 116 115 115 110 93 81 90 103 109 111 114 114 110 106 101 95 91 88 79 68 57
101 137 155 127 124 153 156 129 121 116 111 104 100 98 100 98 85 68 57 56 51 41 37 42 62 88 107 116 116 120 125 129 129 124 99 29 50 75 81 87 86 86 97 112 121 125 128 126 125 121 119 121 124 121 118 119 126 134 140 143 144 138 133 133 130 124 126 124 109 94 89 96 105 116 124 122 117 117 116 111 104 94 82 74 63 45